Location: Seven Kings
(51.5667°N, 0.1000°E)
Time: 14:01:47
(UTC+00:00)

USA 308 - Pass Details

Date: 29 October 2020
Orbit: 571 x 578 km, 54.0° (Epoch: 23 November)

Event Time Altitude Azimuth Distance (km) Brightness Sun altitude
Rises 17:03:03 0° 287° (WNW) 2,789 7.5 -4.6°
Reaches altitude 10° 17:05:19 10° 289° (WNW) 1,888 6.5 -5.0°
Maximum altitude 17:09:37 80° 17° (NNE) 588 2.9 -5.6°
Drops below altitude 10° 17:13:54 10° 105° (ESE) 1,879 5.0 -6.3°
Enters shadow 17:15:05 - 106° (ESE) 2,346 5.5 -6.4°
